Regional Weather Roundup
Issued by NWS

Home | Current Version | Previous Version | Graphics & Text | Print | Product List | Glossary On
Versions: 1 2 3 4 5 6 7 8 9 10 11 12 13 14 15 16 17 18 19 20 21 22 23 24 25 26 27 28 29 30 31 32 33 34 35 36 37 38 39 40 41 42 43 44 45 46 47 48 49 50
000
ASUS43 KTOP 021859
RWRKS

WEATHER ROUNDUP FOR KANSAS
NATIONAL WEATHER SERVICE GOODLAND KS
200 PM CDT THU JUL 02 2015

NOTE:  "FAIR" INDICATES FEW OR NO CLOUDS BELOW 12,000 FEET WITH NO
SIGNIFICANT WEATHER AND/OR OBSTRUCTIONS TO VISIBILITY.

KSZ001>006-013>018-027>032-041>047-022000-
NORTHWEST KANSAS

CITY           SKY/WX    TMP DP  RH WIND       PRES   REMARKS
GOODLAND       MOSUNNY   81  56  42 N18G26    30.09R
HAYS           CLOUDY    72  64  78 SW12      30.00F
HILL CITY      LGT RAIN  84  63  49 N7        30.01R
RUSSELL        CLOUDY    73  69  87 S6        29.97S
$$

KSZ061>065-074>080-084>089-022000-
SOUTHWEST KANSAS

CITY           SKY/WX    TMP DP  RH WIND       PRES   REMARKS
DODGE CITY     PTSUNNY   80  67  64 E10       30.00F
ELKHART          N/A     88  59  37 NE8         N/A
GARDEN CITY    PTSUNNY   80  66  62 CALM      30.02F
GREAT BEND     CLOUDY    75  64  69 SW5       29.98R
LIBERAL        SUNNY     88  63  42 NE15      30.02F
$$

KSZ066>073-081>083-090>101-022000-
SOUTHEAST KANSAS

CITY           SKY/WX    TMP DP  RH WIND       PRES   REMARKS
CHANUTE        CLOUDY    78  70  76 N8        29.91F
COFFEYVILLE    CLOUDY    86  73  65 N10       29.88F
HUTCHINSON     CLOUDY    78  72  81 E9        29.91F
MEDICINE LODGE   N/A     79  71  76 E10       29.92F
NEWTON         CLOUDY    73  68  83 E5        29.94F
PARSONS        CLOUDY    80  72  76 N7        29.91F
WICHITA INTL   LGT RAIN  77  74  90 NE6       29.88F
WICHITA JABRA  LGT RAIN  74  72  93 NE10      29.90F
WICHITA MCCONL LGT RAIN  75  72  88 E13       29.86F
WINFIELD       CLOUDY    80  71  74 N13       29.93S
$$

KSZ007>012-019>026-033>040-048>060-102>105-022000-
NORTHEAST KANSAS

CITY           SKY/WX    TMP DP  RH WIND       PRES   REMARKS
CONCORDIA      CLOUDY    76  70  82 CALM      29.96R
EMPORIA        CLOUDY    77  69  76 N6        29.93F
LAWRENCE       LGT RAIN  72  68  87 N3        29.94S FOG
MANHATTAN      CLOUDY    76  71  85 SE3       29.93S
OLATHE IND     CLOUDY    74  68  81 E5        29.93F HAZE
OLATHE EXE     CLOUDY    72  68  87 NE6       29.92F
SALINA         LGT RAIN  77  72  84 S8        29.94F
TOPEKA BILLARD LGT RAIN  74  70  87 NE6       29.93R
TOPEKA FORBES  LGT RAIN  76  69  79 E3        29.93R
$$



USA.gov is the U.S. government's official web portal to all federal, state and local government web resources and services.